Frankfort, MI

4:05 PM EST on December 08, 2019 (GMT -0500)
Frankfort

Weather History for KFKS - October, 2019

Change the Weather History Date:

Sunday, October 6, 2019

  Actual Average (WUND) Record (WUND)
Temperature  
Mean Temperature 60 °F -  
Max Temperature 64 °F - - (-1)
Min Temperature 55 °F - - (-1)
Degree Days  
Heating Degree Days 6    
Growing Degree Days 10 (Base 50)    
Moisture  
Dew Point 48 °F    
Average Humidity 63    
Maximum Humidity 86    
Minimum Humidity 50    
Precipitation  
Precipitation 0.00 in - - ()
Sea Level Pressure  
Sea Level Pressure 29.91 in    
Wind  
Wind Speed 12 mph (SW)    
Max Wind Speed 20 mph    
Max Gust Speed 32 mph    
Visibility 10 miles    
Events Rain    
Averages and records for this station are not official NWS values.
T = Trace of Precipitation, MM = Missing Value Source: NWS Daily Summary

Daily Weather History Graph

Daily Weather History Graph

Search for Another Location

Airport or City:

Astronomy

Oct. 06, 2019 Rise Set
Actual Time 7:48 AM EDT 7:16 PM EDT
Civil Twilight 7:19 AM EDT 7:45 PM EDT
Nautical Twilight 6:45 AM EDT 8:19 PM EDT
Astronomical Twilight 6:11 AM EDT 8:53 PM EDT
Moon 4:13 PM EDT (10/6) 12:27 AM EDT (10/6)
Length of Visible Light 12h 26m
Length of Day
11h 28m
First Quarter, 59% of the Moon is Illuminated
Oct 6
First Quarter
Oct 13
Full
Oct 21
Last Quarter
Oct 27
New
Nov 4
First Quarter

Hourly Weather History & Observations

Time (EDT) Temp. Dew Point Humidity Pressure Visibility Wind Dir Wind Speed Gust Speed Precip Events Conditions
12:15 AM 55.4 °F 50.7 °F 84% 29.83 in 5.0 mi South 11.5 mph - N/A   Drizzle
12:38 AM 55.9 °F 51.3 °F 84% 29.82 in 4.0 mi South 12.7 mph 18.4 mph N/A   Drizzle
12:56 AM 57.0 °F 52.7 °F 85% 29.82 in 4.0 mi SSW 11.5 mph 18.4 mph N/A Rain Rain
1:15 AM 58.1 °F 53.8 °F 86% 29.80 in 5.0 mi South 10.4 mph 19.6 mph N/A Rain Rain
1:35 AM 60.1 °F 55.4 °F 85% 29.80 in 10.0 mi SSW 12.7 mph 23.0 mph N/A   Overcast
1:36 AM 60.1 °F 55.4 °F 85% 29.80 in 10.0 mi SSW 11.5 mph 23.0 mph N/A   Overcast
1:59 AM 61.2 °F 54.5 °F 79% 29.80 in 10.0 mi SW 15.0 mph 28.8 mph N/A   Overcast
2:17 AM 61.2 °F 54.5 °F 79% 29.80 in 10.0 mi SSW 13.8 mph 23.0 mph N/A   Overcast
2:35 AM 61.2 °F 54.3 °F 78% 29.80 in 10.0 mi SW 9.2 mph 24.2 mph N/A   Overcast
2:36 AM 61.2 °F 54.5 °F 79% 29.80 in 10.0 mi SW 9.2 mph 24.2 mph N/A   Overcast
2:55 AM 61.0 °F 54.3 °F 79% 29.80 in 10.0 mi SW 15.0 mph 26.5 mph N/A   Overcast
2:56 AM 61.0 °F 54.1 °F 78% 29.80 in 10.0 mi SW 16.1 mph 26.5 mph N/A   Overcast
3:15 AM 61.0 °F 54.1 °F 78% 29.80 in 10.0 mi SW 11.5 mph 25.3 mph N/A   Overcast
3:38 AM 60.8 °F 54.3 °F 79% 29.80 in 10.0 mi SSW 11.5 mph 21.9 mph N/A   Mostly Cloudy
3:56 AM 61.2 °F 54.5 °F 79% 29.80 in 10.0 mi SW 9.2 mph 20.7 mph N/A   Mostly Cloudy
4:15 AM 61.2 °F 53.8 °F 77% 29.80 in 10.0 mi SW 12.7 mph 23.0 mph N/A   Overcast
4:16 AM 61.2 °F 53.8 °F 77% 29.80 in 10.0 mi WSW 16.1 mph 26.5 mph N/A   Overcast
4:35 AM 60.4 °F 52.9 °F 76% 29.80 in 10.0 mi WSW 13.8 mph 25.3 mph N/A   Mostly Cloudy
4:59 AM 60.4 °F 50.4 °F 69% 29.81 in 10.0 mi WSW 17.3 mph 27.6 mph N/A   Scattered Clouds
5:16 AM 59.9 °F 50.0 °F 70% 29.82 in 10.0 mi WSW 15.0 mph 23.0 mph N/A   Mostly Cloudy
5:35 AM 59.9 °F 47.8 °F 64% 29.82 in 10.0 mi West 15.0 mph 32.2 mph N/A   Overcast
5:36 AM 59.9 °F 48.0 °F 65% 29.82 in 10.0 mi West 17.3 mph 32.2 mph N/A   Overcast
5:55 AM 58.6 °F 47.3 °F 66% 29.83 in 10.0 mi West 18.4 mph 27.6 mph N/A   Mostly Cloudy
6:15 AM 58.5 °F 46.6 °F 65% 29.84 in 10.0 mi West 19.6 mph 28.8 mph N/A   Mostly Cloudy
6:38 AM 58.3 °F 44.8 °F 61% 29.85 in 10.0 mi West 16.1 mph 28.8 mph N/A   Mostly Cloudy
6:55 AM 58.1 °F 44.4 °F 60% 29.86 in 10.0 mi West 17.3 mph 25.3 mph N/A   Overcast
7:15 AM 57.4 °F 43.9 °F 61% 29.87 in 10.0 mi West 16.1 mph 27.6 mph N/A   Mostly Cloudy
7:35 AM 57.2 °F 42.6 °F 58% 29.88 in 10.0 mi WNW 15.0 mph 21.9 mph N/A   Mostly Cloudy
7:59 AM 57.0 °F 43.0 °F 59% 29.89 in 10.0 mi West 11.5 mph 19.6 mph N/A   Mostly Cloudy
8:17 AM 56.8 °F 43.0 °F 60% 29.89 in 10.0 mi West 11.5 mph 23.0 mph N/A   Mostly Cloudy
8:35 AM 57.0 °F 43.9 °F 61% 29.90 in 10.0 mi West 15.0 mph 18.4 mph N/A   Scattered Clouds
8:36 AM 57.2 °F 43.7 °F 61% 29.90 in 10.0 mi West 13.8 mph 18.4 mph N/A   Scattered Clouds
8:55 AM 57.6 °F 44.2 °F 61% 29.91 in 10.0 mi West 10.4 mph 21.9 mph N/A   Mostly Cloudy
9:15 AM 57.7 °F 44.6 °F 62% 29.92 in 10.0 mi WSW 11.5 mph 23.0 mph N/A   Scattered Clouds
9:38 AM 58.3 °F 45.1 °F 62% 29.93 in 10.0 mi West 16.1 mph 24.2 mph N/A   Mostly Cloudy
9:56 AM 58.3 °F 45.7 °F 63% 29.94 in 10.0 mi WSW 13.8 mph 21.9 mph N/A   Mostly Cloudy
10:15 AM 58.6 °F 46.0 °F 63% 29.95 in 10.0 mi WSW 11.5 mph 20.7 mph N/A   Mostly Cloudy
10:16 AM 58.6 °F 46.2 °F 63% 29.95 in 10.0 mi WSW 12.7 mph 20.7 mph N/A   Mostly Cloudy
10:35 AM 59.4 °F 46.6 °F 63% 29.94 in 10.0 mi WSW 12.7 mph 16.1 mph N/A   Scattered Clouds
10:59 AM 60.4 °F 46.8 °F 61% 29.94 in 10.0 mi WSW 9.2 mph 19.6 mph N/A   Clear
11:17 AM 60.6 °F 47.1 °F 61% 29.95 in 10.0 mi WSW 10.4 mph 17.3 mph N/A   Clear
11:35 AM 60.8 °F 47.8 °F 62% 29.95 in 10.0 mi SW 11.5 mph 21.9 mph N/A   Scattered Clouds
11:36 AM 60.6 °F 47.8 °F 63% 29.95 in 10.0 mi SW 11.5 mph 21.9 mph N/A   Scattered Clouds
11:55 AM 60.8 °F 48.6 °F 64% 29.97 in 10.0 mi SW 11.5 mph 18.4 mph N/A   Scattered Clouds
12:15 PM 60.8 °F 48.6 °F 64% 29.97 in 10.0 mi SW 9.2 mph 19.6 mph N/A   Scattered Clouds
12:38 PM 61.2 °F 49.1 °F 65% 29.98 in 10.0 mi SW 12.7 mph 23.0 mph N/A   Clear
12:55 PM 61.7 °F 48.7 °F 62% 29.99 in 10.0 mi SW 9.2 mph 20.7 mph N/A   Clear
1:15 PM 61.9 °F 49.3 °F 63% 29.99 in 10.0 mi WSW 11.5 mph 23.0 mph N/A   Clear
1:35 PM 62.1 °F 49.3 °F 63% 29.99 in 10.0 mi SW 15.0 mph 20.7 mph N/A   Clear
1:58 PM 62.8 °F 49.8 °F 63% 29.99 in 10.0 mi SW 11.5 mph 17.3 mph N/A   Clear
2:16 PM 62.1 °F 48.9 °F 62% 29.98 in 10.0 mi SW 12.7 mph 19.6 mph N/A   Clear
2:35 PM 62.6 °F 48.6 °F 60% 29.97 in 10.0 mi SW 10.4 mph 21.9 mph N/A   Clear
2:36 PM 62.6 °F 48.6 °F 60% 29.97 in 10.0 mi SW 10.4 mph 20.7 mph N/A   Clear
2:55 PM 63.1 °F 49.1 °F 60% 29.96 in 10.0 mi SSW 11.5 mph 19.6 mph N/A   Clear
3:19 PM 62.6 °F 47.8 °F 58% 29.95 in 10.0 mi SSW 11.5 mph 19.6 mph N/A   Clear
3:37 PM 63.0 °F 48.2 °F 59% 29.95 in 10.0 mi SSW 12.7 mph 19.6 mph N/A   Clear
3:55 PM 63.5 °F 48.0 °F 57% 29.95 in 10.0 mi SSW 9.2 mph 19.6 mph N/A   Clear
4:15 PM 63.5 °F 48.6 °F 58% 29.95 in 10.0 mi SSW 10.4 mph 19.6 mph N/A   Clear
4:35 PM 63.7 °F 48.2 °F 57% 29.95 in 10.0 mi SSW 11.5 mph 16.1 mph N/A   Clear
4:40 PM 63.7 °F 48.6 °F 58% 29.95 in 10.0 mi SSW 9.2 mph 17.3 mph N/A   Clear
4:58 PM 63.5 °F 47.8 °F 57% 29.94 in 10.0 mi SSW 11.5 mph 18.4 mph N/A   Clear
5:16 PM 63.5 °F 47.5 °F 56% 29.94 in 10.0 mi SSW 8.1 mph 16.1 mph N/A   Clear
5:35 PM 63.9 °F 46.9 °F 54% 29.94 in 10.0 mi SW 9.2 mph 16.1 mph N/A   Clear
5:36 PM 64.0 °F 46.9 °F 54% 29.94 in 10.0 mi SW 10.4 mph 16.1 mph N/A   Clear
5:55 PM 63.7 °F 47.1 °F 55% 29.94 in 10.0 mi SW 10.4 mph 16.1 mph N/A   Clear
6:19 PM 63.5 °F 47.5 °F 56% 29.95 in 10.0 mi SSW 9.2 mph - N/A   Clear
6:37 PM 63.1 °F 48.0 °F 58% 29.95 in 10.0 mi SSW 6.9 mph - N/A   Clear
6:55 PM 63.1 °F 47.5 °F 57% 29.95 in 10.0 mi SSW 9.2 mph - N/A   Clear
6:56 PM 63.1 °F 47.3 °F 56% 29.95 in 10.0 mi SSW 9.2 mph - N/A   Clear
7:15 PM 62.8 °F 47.1 °F 57% 29.95 in 10.0 mi SSW 8.1 mph 17.3 mph N/A   Clear
7:16 PM 62.6 °F 47.3 °F 57% 29.95 in 10.0 mi SSW 6.9 mph 17.3 mph N/A   Clear
7:35 PM 62.4 °F 46.8 °F 57% 29.96 in 10.0 mi SSW 9.2 mph - N/A   Clear
7:58 PM 62.6 °F 46.4 °F 55% 29.96 in 10.0 mi SW 6.9 mph - N/A   Clear
8:15 PM 63.1 °F 46.0 °F 54% 29.96 in 10.0 mi SSW 11.5 mph - N/A   Clear
8:35 PM 63.0 °F 46.0 °F 54% 29.96 in 10.0 mi SW 9.2 mph - N/A   Clear
8:55 PM 63.5 °F 45.5 °F 52% 29.97 in 10.0 mi SW 9.2 mph 18.4 mph N/A   Clear
9:19 PM 63.3 °F 45.0 °F 51% 29.97 in 10.0 mi SW 9.2 mph - N/A   Clear
9:37 PM 63.5 °F 44.6 °F 50% 29.98 in 10.0 mi SW 9.2 mph 18.4 mph N/A   Clear
9:55 PM 63.3 °F 45.0 °F 51% 29.98 in 10.0 mi SW 10.4 mph 17.3 mph N/A   Clear
9:56 PM 63.5 °F 45.0 °F 51% 29.98 in 10.0 mi SW 10.4 mph 17.3 mph N/A   Clear
10:15 PM 63.0 °F 45.1 °F 52% 29.98 in 10.0 mi SW 10.4 mph 18.4 mph N/A   Clear
10:35 PM 63.0 °F 45.5 °F 53% 29.99 in 10.0 mi WSW 11.5 mph 20.7 mph N/A   Clear
10:58 PM 62.8 °F 45.1 °F 53% 29.98 in 10.0 mi WSW 8.1 mph 18.4 mph N/A   Clear
11:16 PM 63.0 °F 45.7 °F 53% 29.99 in 10.0 mi SW 12.7 mph 20.7 mph N/A   Clear
11:35 PM 62.6 °F 46.6 °F 56% 29.99 in 10.0 mi SW 10.4 mph 16.1 mph N/A   Clear
11:36 PM 62.6 °F 46.8 °F 56% 29.99 in 10.0 mi SW 8.1 mph 16.1 mph N/A   Clear
11:55 PM 62.6 °F 46.8 °F 56% 29.99 in 10.0 mi WSW 6.9 mph 17.3 mph N/A   Clear
11:56 PM 62.4 °F 46.9 °F 57% 29.99 in 10.0 mi WSW 8.1 mph 17.3 mph N/A   Clear